User: anonymous   Login
Location: Delmar
(42.6220°N, 73.8326°W)
Time: 23:07:20
(UTC+00:00)
Language:

Cosmos 2058 Rocket - Orbit

View from above orbital plane
View from above orbital plane
View from above satellite
View from above satellite

Ground track
Ground track

The orbit data is extracted from the following two-line orbital elements,

1 20466U 90010B   21018.81193018  .00000053  00000-0  37454-5 0  9997
2 20466  82.5014 225.2222 0020338 354.3364   5.7616 14.81407625671671
Epoch (UTC): 18 January 2021 19:29:10
Eccentricity: 0.0020338
inclination: 82.5014°
perigee height: 610 km
apogee height: 639 km
right ascension of ascending node: 225.2222°
argument of perigee: 354.3364°
revolutions per day: 14.81407625
mean anomaly at epoch: 5.7616°
orbit number at epoch: 67167

The dashed part of the orbit path shows where the satellite is in the earth's shadow,  

DLR